Moses Lake, WA

5:35 AM PDT on September 25, 2016 (GMT -0700)
Grant County International

Weather History for KMWH - May, 2013

Change the Weather History Date:

Monday, May 20, 2013

  Actual Average Record
Temperature  
Mean Temperature 61 °F 60 °F  
Max Temperature 77 °F 75 °F 87 °F (1985)
Min Temperature 45 °F 46 °F 38 °F (1982)
Degree Days  
Heating Degree Days 4 6  
Month to date heating degree days 66 162  
Since 1 July heating degree days 5174 5779  
Cooling Degree Days 0 1  
Month to date cooling degree days 50 10  
Year to date cooling degree days 50 11  
Growing Degree Days 12 (Base 50)    
Moisture  
Dew Point 41 °F    
Average Humidity 53    
Maximum Humidity 82    
Minimum Humidity 24    
Precipitation  
Precipitation 0.00 in 0.02 in 0.20 in (2006)
Month to date precipitation 0.01 0.38  
Year to date precipitation 1.39 3.80  
Sea Level Pressure  
Sea Level Pressure 30.10 in    
Wind  
Wind Speed 4 mph (SSE)    
Max Wind Speed 15 mph    
Max Gust Speed 22 mph    
Visibility 10 miles    
Events      
T = Trace of Precipitation, MM = Missing Value Source: NWS Daily Summary

Daily Weather History Graph

Daily Weather History Graph

Search for Another Location

Airport or City:

Trip Planner

Search our weather history database for the weather conditions in past years. The results will help you decide how hot, cold, wet, or windy it might be!

Date:

Astronomy

May. 20, 2013 Rise Set
Actual Time 5:15 AM PDT 8:33 PM PDT
Civil Twilight 4:38 AM PDT 9:10 PM PDT
Nautical Twilight 3:49 AM PDT 9:59 PM PDT
Astronomical Twilight 2:47 AM PDT 11:01 PM PDT
Moon 3:28 PM PDT (5/20) 2:32 AM PDT (5/20)
Length of Visible Light 16h 32m
Length of Day
15h 18m
Waxing Gibbous, 76% of the Moon is Illuminated
May 20
Waxing Gibbous
May 24
Full
May 31
Last Quarter
Jun 8
New
Jun 16
First Quarter

Hourly Weather History & Observations

Time (PDT) Temp. Dew Point Humidity Pressure Visibility Wind Dir Wind Speed Gust Speed Precip Events Conditions
12:52 AM 55.9 °F 43.0 °F 62% 30.23 in 10.0 mi SW 3.5 mph - N/A   Clear
1:52 AM 54.0 °F 44.1 °F 69% 30.22 in 10.0 mi SW 5.8 mph - N/A   Clear
2:52 AM 51.8 °F 41.0 °F 67% 30.23 in 10.0 mi Calm Calm - N/A   Clear
3:52 AM 48.0 °F 41.0 °F 77% 30.24 in 10.0 mi Calm Calm - N/A   Clear
4:52 AM 46.9 °F 41.0 °F 80% 30.24 in 10.0 mi SE 4.6 mph - N/A   Clear
5:52 AM 46.0 °F 39.9 °F 79% 30.25 in 10.0 mi Calm Calm - N/A   Clear
6:52 AM 50.0 °F 42.1 °F 74% 30.25 in 10.0 mi ESE 4.6 mph - N/A   Clear
7:52 AM 53.1 °F 43.0 °F 69% 30.25 in 10.0 mi SSE 3.5 mph - N/A   Clear
8:52 AM 60.1 °F 44.1 °F 55% 30.24 in 10.0 mi Variable 5.8 mph - N/A   Clear
9:52 AM 63.0 °F 41.0 °F 45% 30.22 in 10.0 mi SW 3.5 mph - N/A   Clear
10:52 AM 66.9 °F 39.0 °F 36% 30.20 in 10.0 mi SSW 10.4 mph - N/A   Clear
11:52 AM 69.1 °F 39.0 °F 33% 30.18 in 10.0 mi SSW 9.2 mph - N/A   Clear
12:52 PM 71.1 °F 39.9 °F 32% 30.15 in 10.0 mi SW 6.9 mph - N/A   Clear
1:52 PM 75.0 °F 37.9 °F 26% 30.12 in 10.0 mi SSE 10.4 mph - N/A   Clear
2:52 PM 75.0 °F 39.9 °F 28% 30.08 in 10.0 mi Variable 6.9 mph - N/A   Clear
3:52 PM 75.0 °F 37.9 °F 26% 30.05 in 10.0 mi ENE 4.6 mph - N/A   Clear
4:52 PM 77.0 °F 37.9 °F 24% 30.01 in 10.0 mi Variable 5.8 mph - N/A   Clear
5:52 PM 75.9 °F 39.0 °F 26% 29.98 in 10.0 mi SE 4.6 mph - N/A   Partly Cloudy
6:52 PM 73.9 °F 39.0 °F 28% 29.94 in 10.0 mi Calm Calm - N/A   Clear
7:52 PM 73.0 °F 39.0 °F 29% 29.91 in 10.0 mi Calm Calm - N/A   Clear
8:52 PM 68.0 °F 39.9 °F 36% 29.88 in 10.0 mi Calm Calm - N/A   Clear
9:52 PM 63.0 °F 42.1 °F 46% 29.87 in 10.0 mi NNE 3.5 mph - N/A   Clear
10:52 PM 60.1 °F 41.0 °F 49% 29.85 in 10.0 mi ENE 4.6 mph - N/A   Clear
11:52 PM 55.9 °F 42.1 °F 60% 29.82 in 10.0 mi NE 4.6 mph - N/A   Clear